Location: Cahas Mountain Overlook
(37.0833°N, 80.1000°W)
Time: 06:53:00
(UTC-04:00)

Explorer 7 - Pass Details

Date: 11 February 2026
Orbit: 430 x 540 km, 50.2° (Epoch: 14 March)

Event Time Altitude Azimuth Distance (km) Brightness Sun altitude
Rises 00:27:16 0° 307° (NW) 2,653 - -66.9°
Reaches altitude 10° 00:29:27 10° 306° (NW) 1,777 - -66.9°
Maximum altitude 00:33:31 81° 221° (SW) 550 - -66.9°
Drops below altitude 10° 00:37:38 10° 133° (SE) 1,804 - -66.9°
Sets 00:39:53 0° 132° (SE) 2,697 - -66.9°
